sat.trackr.live / text

‹ back to catalog

STARLINK-30954

NORAD 58407 · 2023-180F

PAYLOAD ACTIVE UNKNOWN

§ Identity

Operator
Country
US
Launch date
2023-11-22
Launch site
AFETR
Launch vehicle
Mass (kg)
RCS (m²)

Purposes: comms

External: N2YO · Heavens-Above · Gunter

§ Orbital elements

Epoch: 2026-05-24T23:19:25.870944Z

Period
94.27 min
Inclination
43.0031°
Eccentricity
0.0000848
Mean motion
15.27582868 rev/d
Perigee alt
482.5 km
Apogee alt
483.6 km
Semi-major
6,861.2 km
B*
-3.4907e-5
RAAN
341.6386°
Arg perigee
278.5175°
Mean anomaly
81.5581°
Rev number
13,929

§ Raw data

STARLINK-309541 58407U 23180F   26144.97182721 -.00001222  00000+0 -34907-4 0  99972 58407  43.0031 341.6386 0000848 278.5175  81.5581 15.27582868139297

JSON: /api/v1/satellites/58407 · /tle

For live sub-satellite position, see the globe view (requires WebGL).

§ Visibility from observer

Set your observer location to see the next 7 days of passes ≥ 10°. The values pass through the URL so the page stays shareable.

No JS? Fill the form by hand. The geolocation button needs JavaScript.